Location: Balaclava NSW 2575, Australia
(34.4510°S, 150.4953°E)
Time: 16:20:17
(UTC+10:00)

Envisat - Pass Details

Date: 25 May 2021
Orbit: 764 x 766 km, 98.1° (Epoch: 18 June)

Event Time Altitude Azimuth Distance (km) Brightness Sun altitude
Rises 05:33:02 0° 343° (NNW) 3,216 6.2 -16.0°
Reaches altitude 10° 05:35:42 10° 330° (NNW) 2,300 5.3 -15.5°
Maximum altitude 05:39:49 25° 275° (W) 1,526 4.0 -14.6°
Enters shadow 05:41:30 21° 247° (WSW) 1,685 4.1 -14.3°
